| time (UTC) | temp F | wind direction | speed MPH | gust MPH | rain 1hr in | rain 24hr in | rain mn in | humidity % | barometer mb |
| 20260905215022 | 65 | 331 | 0.0 | 2.0 | 0.00 | 0.00 | 0.00 | 60 | 1022.0 |
| 20260905214030 | 64 | 95 | 0.0 | 2.0 | 0.00 | 0.00 | 0.00 | 63 | 1022.0 |
| 20260905213022 | 62 | 117 | 0.0 | 2.0 | 0.00 | 0.00 | 0.00 | 67 | 1021.9 |
| 20260905212029 | 63 | 100 | 1.0 | 2.0 | 0.00 | 0.00 | 0.00 | 68 | 1021.8 |
| 20260905211021 | 63 | 126 | 1.0 | 2.0 | 0.00 | 0.00 | 0.00 | 67 | 1021.8 |
| 20260905210030 | 64 | 132 | 1.0 | 2.0 | 0.00 | 0.00 | 0.00 | 66 | 1021.8 |
| 20260905205023 | 64 | 119 | 1.0 | 2.0 | 0.00 | 0.00 | 0.00 | 63 | 1021.9 |
| 20260905204030 | 65 | 0.0 | 1.0 | 0.00 | 0.00 | 0.00 | 61 | 1021.8 | |
| 20260905203021 | 66 | 0.0 | 1.0 | 0.00 | 0.00 | 0.00 | 61 | 1021.9 | |
| 20260905202030 | 65 | 0.0 | 1.0 | 0.00 | 0.00 | 0.00 | 62 | 1021.9 | |
| 20260905201021 | 65 | 54 | 0.0 | 1.0 | 0.00 | 0.00 | 0.00 | 64 | 1021.9 |
| 20260905200030 | 65 | 56 | 0.0 | 2.0 | 0.00 | 0.00 | 0.00 | 64 | 1021.7 |
| 20260905195022 | 66 | 90 | 0.0 | 2.0 | 0.00 | 0.00 | 0.00 | 63 | 1021.7 |
| 20260905194029 | 66 | 0.0 | 0.0 | 0.00 | 0.00 | 0.00 | 61 | 1021.6 | |
| 20260905193022 | 67 | 0.0 | 1.0 | 0.00 | 0.00 | 0.00 | 60 | 1021.5 | |
| 20260905192029 | 67 | 142 | 0.0 | 1.0 | 0.00 | 0.00 | 0.00 | 60 | 1021.5 |
| 20260905191022 | 67 | 0.0 | 1.0 | 0.00 | 0.00 | 0.00 | 60 | 1021.5 | |
| 20260905190030 | 67 | 78 | 0.0 | 2.0 | 0.00 | 0.00 | 0.00 | 61 | 1021.4 |
| 20260905185022 | 67 | 0.0 | 3.0 | 0.00 | 0.00 | 0.00 | 62 | 1021.1 | |
| 20260905184029 | 68 | 127 | 0.0 | 2.0 | 0.00 | 0.00 | 0.00 | 61 | 1020.9 |
| 20260905183022 | 68 | 99 | 0.0 | 1.0 | 0.00 | 0.00 | 0.00 | 61 | 1020.9 |
| 20260905182029 | 69 | 0.0 | 1.0 | 0.00 | 0.00 | 0.00 | 59 | 1020.6 | |
| 20260905181023 | 70 | 150 | 0.0 | 2.0 | 0.00 | 0.00 | 0.00 | 58 | 1020.6 |
| 20260905180030 | 70 | 338 | 0.0 | 2.0 | 0.00 | 0.00 | 0.00 | 57 | 1020.5 |
| 20260905175022 | 71 | 251 | 0.0 | 2.0 | 0.00 | 0.00 | 0.00 | 56 | 1020.3 |
| 20260905174031 | 71 | 320 | 1.0 | 4.0 | 0.00 | 0.00 | 0.00 | 55 | 1020.2 |
| 20260905173021 | 72 | 294 | 2.0 | 6.0 | 0.00 | 0.00 | 0.00 | 54 | 1020.0 |
| 20260905172030 | 72 | 300 | 2.0 | 3.0 | 0.00 | 0.00 | 0.00 | 54 | 1020.0 |
| 20260905171022 | 72 | 306 | 2.0 | 6.0 | 0.00 | 0.00 | 0.00 | 54 | 1020.0 |
| 20260905170029 | 72 | 290 | 2.0 | 5.0 | 0.00 | 0.00 | 0.00 | 54 | 1019.8 |
| 20260905165025 | 73 | 263 | 1.0 | 5.0 | 0.00 | 0.00 | 0.00 | 53 | 1019.6 |
| 20260905164030 | 74 | 295 | 1.0 | 3.0 | 0.00 | 0.00 | 0.00 | 51 | 1019.5 |
| 20260905163022 | 74 | 308 | 2.0 | 5.0 | 0.00 | 0.00 | 0.00 | 50 | 1019.5 |
| 20260905162031 | 74 | 297 | 2.0 | 5.0 | 0.00 | 0.00 | 0.00 | 50 | 1019.4 |
| 20260905161022 | 75 | 299 | 2.0 | 7.0 | 0.00 | 0.00 | 0.00 | 49 | 1019.2 |
| 20260905160030 | 75 | 305 | 2.0 | 5.0 | 0.00 | 0.00 | 0.00 | 48 | 1019.1 |
| 20260905155022 | 75 | 303 | 2.0 | 7.0 | 0.00 | 0.00 | 0.00 | 48 | 1019.1 |
| 20260905154030 | 76 | 292 | 3.0 | 6.0 | 0.00 | 0.00 | 0.00 | 47 | 1019.0 |
| 20260905153023 | 76 | 301 | 2.0 | 8.0 | 0.00 | 0.00 | 0.00 | 46 | 1019.0 |
| 20260905152030 | 76 | 304 | 3.0 | 11.0 | 0.00 | 0.00 | 0.00 | 46 | 1018.9 |
| 20260905151022 | 77 | 296 | 2.0 | 4.0 | 0.00 | 0.00 | 0.00 | 45 | 1018.8 |
| 20260905150032 | 77 | 302 | 3.0 | 7.0 | 0.00 | 0.00 | 0.00 | 45 | 1018.9 |
| 20260905145022 | 77 | 299 | 3.0 | 7.0 | 0.00 | 0.00 | 0.00 | 45 | 1018.8 |
| 20260905144030 | 78 | 313 | 2.0 | 6.0 | 0.00 | 0.00 | 0.00 | 45 | 1018.8 |
| 20260905143022 | 77 | 299 | 3.0 | 6.0 | 0.00 | 0.00 | 0.00 | 45 | 1018.8 |
| 20260905142030 | 76 | 308 | 3.0 | 8.0 | 0.00 | 0.00 | 0.00 | 46 | 1018.9 |
| 20260905141026 | 76 | 303 | 2.0 | 6.0 | 0.00 | 0.00 | 0.00 | 47 | 1019.0 |
| 20260905140030 | 75 | 296 | 2.0 | 7.0 | 0.00 | 0.00 | 0.00 | 47 | 1019.3 |
| 20260905135022 | 75 | 302 | 2.0 | 7.0 | 0.00 | 0.00 | 0.00 | 47 | 1019.3 |
| 20260905134031 | 75 | 305 | 2.0 | 9.0 | 0.00 | 0.00 | 0.00 | 47 | 1019.2 |
| 20260905133022 | 75 | 300 | 3.0 | 7.0 | 0.00 | 0.00 | 0.00 | 48 | 1019.2 |
| 20260905132031 | 75 | 310 | 2.0 | 7.0 | 0.00 | 0.00 | 0.00 | 48 | 1019.2 |
| 20260905131023 | 76 | 290 | 3.0 | 7.0 | 0.00 | 0.00 | 0.00 | 47 | 1019.2 |
| 20260905130030 | 75 | 297 | 2.0 | 5.0 | 0.00 | 0.00 | 0.00 | 47 | 1019.4 |
| 20260905125023 | 75 | 306 | 3.0 | 6.0 | 0.00 | 0.00 | 0.00 | 47 | 1019.3 |
| 20260905124030 | 75 | 289 | 2.0 | 7.0 | 0.00 | 0.00 | 0.00 | 47 | 1019.4 |
| 20260905123021 | 74 | 304 | 3.0 | 8.0 | 0.00 | 0.00 | 0.00 | 48 | 1019.4 |
| 20260905122030 | 74 | 299 | 3.0 | 7.0 | 0.00 | 0.00 | 0.00 | 46 | 1019.3 |
| 20260905121023 | 75 | 302 | 3.0 | 8.0 | 0.00 | 0.00 | 0.00 | 45 | 1019.3 |
| 20260905120030 | 76 | 293 | 3.0 | 6.0 | 0.00 | 0.00 | 0.00 | 45 | 1019.5 |
| 20260905115022 | 75 | 300 | 3.0 | 7.0 | 0.00 | 0.00 | 0.00 | 46 | 1019.4 |
| 20260905114030 | 75 | 306 | 3.0 | 9.0 | 0.00 | 0.00 | 0.00 | 47 | 1019.3 |
| 20260905113023 | 76 | 306 | 3.0 | 8.0 | 0.00 | 0.00 | 0.00 | 47 | 1019.2 |
| 20260905112030 | 75 | 294 | 3.0 | 9.0 | 0.00 | 0.00 | 0.00 | 47 | 1019.1 |
| 20260905111023 | 75 | 299 | 3.0 | 7.0 | 0.00 | 0.00 | 0.00 | 47 | 1019.1 |
| 20260905110031 | 74 | 309 | 4.0 | 16.0 | 0.00 | 0.00 | 0.00 | 48 | 1019.2 |
| 20260905105022 | 72 | 304 | 3.0 | 10.0 | 0.00 | 0.00 | 0.00 | 52 | 1019.2 |
| 20260905104030 | 71 | 314 | 2.0 | 7.0 | 0.00 | 0.00 | 0.00 | 54 | 1019.3 |
| 20260905103022 | 71 | 347 | 1.0 | 6.0 | 0.00 | 0.00 | 0.00 | 56 | 1019.3 |
| 20260905102032 | 70 | 12 | 1.0 | 4.0 | 0.00 | 0.00 | 0.00 | 56 | 1019.5 |
| 20260905101023 | 69 | 55 | 1.0 | 4.0 | 0.00 | 0.00 | 0.00 | 58 | 1019.5 |
| 20260905100031 | 69 | 86 | 1.0 | 4.0 | 0.00 | 0.00 | 0.00 | 59 | 1019.5 |
| 20260905095022 | 68 | 53 | 2.0 | 5.0 | 0.00 | 0.00 | 0.00 | 59 | 1019.6 |
| 20260905094031 | 68 | 64 | 1.0 | 2.0 | 0.00 | 0.00 | 0.00 | 59 | 1019.6 |
| 20260905093022 | 68 | 77 | 1.0 | 3.0 | 0.00 | 0.00 | 0.00 | 59 | 1019.6 |
| 20260905092030 | 68 | 0.0 | 4.0 | 0.00 | 0.00 | 0.00 | 59 | 1019.8 | |
| 20260905091022 | 68 | 166 | 0.0 | 3.0 | 0.00 | 0.00 | 0.00 | 59 | 1019.7 |
| 20260905090030 | 68 | 321 | 0.0 | 2.0 | 0.00 | 0.00 | 0.00 | 59 | 1019.9 |
| 20260905085020 | 68 | 332 | 1.0 | 6.0 | 0.00 | 0.00 | 0.00 | 58 | 1019.7 |
| 20260905084029 | 67 | 322 | 2.0 | 5.0 | 0.00 | 0.00 | 0.00 | 58 | 1020.0 |
| 20260905083023 | 67 | 339 | 2.0 | 8.0 | 0.00 | 0.00 | 0.00 | 57 | 1019.9 |
| 20260905082027 | 68 | 19 | 0.0 | 3.0 | 0.00 | 0.00 | 0.00 | 56 | 1020.0 |
| 20260905081021 | 68 | 290 | 1.0 | 3.0 | 0.00 | 0.00 | 0.00 | 56 | 1020.2 |
| 20260905080031 | 67 | 309 | 1.0 | 4.0 | 0.00 | 0.00 | 0.00 | 56 | 1020.3 |
| 20260905075021 | 67 | 311 | 1.0 | 3.0 | 0.00 | 0.00 | 0.00 | 57 | 1020.2 |
| 20260905074029 | 66 | 284 | 1.0 | 4.0 | 0.00 | 0.00 | 0.00 | 57 | 1020.2 |
| 20260905073019 | 66 | 294 | 2.0 | 5.0 | 0.00 | 0.00 | 0.00 | 56 | 1020.4 |
| 20260905072030 | 67 | 337 | 1.0 | 5.0 | 0.00 | 0.00 | 0.00 | 54 | 1020.3 |
| 20260905071023 | 67 | 290 | 2.0 | 7.0 | 0.00 | 0.00 | 0.00 | 54 | 1020.2 |
| 20260905070031 | 66 | 4 | 1.0 | 3.0 | 0.00 | 0.00 | 0.00 | 55 | 1019.9 |
| 20260905065023 | 66 | 354 | 2.0 | 6.0 | 0.00 | 0.00 | 0.00 | 56 | 1019.9 |
| 20260905064031 | 67 | 342 | 3.0 | 9.0 | 0.00 | 0.00 | 0.00 | 55 | 1020.5 |
| 20260905063022 | 67 | 324 | 3.0 | 14.0 | 0.00 | 0.00 | 0.00 | 55 | 1020.0 |
| 20260905062031 | 67 | 356 | 2.0 | 6.0 | 0.00 | 0.00 | 0.00 | 55 | 1019.5 |
| 20260905061022 | 68 | 346 | 2.0 | 6.0 | 0.00 | 0.00 | 0.00 | 53 | 1019.4 |
| 20260905060030 | 68 | 318 | 2.0 | 4.0 | 0.00 | 0.00 | 0.00 | 53 | 1019.2 |
| 20260905055023 | 68 | 331 | 3.0 | 9.0 | 0.00 | 0.00 | 0.00 | 53 | 1018.6 |
| 20260905054031 | 67 | 260 | 2.0 | 4.0 | 0.00 | 0.00 | 0.00 | 55 | 1018.6 |
| 20260905053023 | 67 | 325 | 3.0 | 11.0 | 0.00 | 0.00 | 0.00 | 57 | 1017.7 |
| 20260905052031 | 67 | 3 | 3.0 | 8.0 | 0.00 | 0.00 | 0.00 | 58 | 1017.3 |
| 20260905051023 | 67 | 285 | 2.0 | 9.0 | 0.00 | 0.00 | 0.00 | 57 | 1016.8 |
| 20260905050031 | 67 | 311 | 2.0 | 6.0 | 0.00 | 0.00 | 0.00 | 59 | 1016.6 |
| 20260905045023 | 67 | 114 | 1.0 | 5.0 | 0.00 | 0.00 | 0.00 | 61 | 1016.6 |
| 20260905044031 | 67 | 21 | 1.0 | 4.0 | 0.00 | 0.00 | 0.00 | 62 | 1016.4 |
| 20260905043023 | 68 | 325 | 4.0 | 8.0 | 0.00 | 0.00 | 0.00 | 61 | 1015.3 |
| 20260905042031 | 69 | 326 | 4.0 | 13.0 | 0.00 | 0.00 | 0.00 | 61 | 1014.9 |
| 20260905041023 | 71 | 327 | 5.0 | 15.0 | 0.00 | 0.00 | 0.00 | 61 | 1015.1 |
| 20260905040031 | 74 | 325 | 6.0 | 15.0 | 0.00 | 0.00 | 0.00 | 59 | 1014.9 |
| 20260905035021 | 75 | 341 | 4.0 | 11.0 | 0.00 | 0.00 | 0.00 | 58 | 1014.8 |
| 20260905034030 | 76 | 220 | 1.0 | 4.0 | 0.00 | 0.00 | 0.00 | 56 | 1013.9 |
| 20260905033020 | 78 | 315 | 2.0 | 5.0 | 0.00 | 0.00 | 0.00 | 51 | 1014.2 |
| 20260905032029 | 78 | 319 | 2.0 | 5.0 | 0.00 | 0.00 | 0.00 | 50 | 1014.0 |
| 20260905031023 | 78 | 272 | 3.0 | 6.0 | 0.00 | 0.00 | 0.00 | 49 | 1014.0 |
| 20260905030029 | 77 | 270 | 2.0 | 5.0 | 0.00 | 0.00 | 0.00 | 49 | 1013.7 |
| 20260905025022 | 68 | 313 | 1.0 | 4.0 | 0.00 | 0.00 | 0.00 | 61 | 1013.7 |
| 20260905024031 | 68 | 104 | 2.0 | 4.0 | 0.00 | 0.00 | 0.00 | 60 | 1013.5 |
| 20260905023023 | 68 | 110 | 1.0 | 4.0 | 0.00 | 0.00 | 0.00 | 59 | 1013.3 |
| 20260905022030 | 68 | 123 | 1.0 | 4.0 | 0.00 | 0.00 | 0.00 | 60 | 1013.3 |
| 20260905021021 | 69 | 1 | 1.0 | 3.0 | 0.00 | 0.00 | 0.00 | 59 | 1013.4 |
| 20260905020029 | 68 | 200 | 1.0 | 4.0 | 0.00 | 0.00 | 0.00 | 59 | 1013.3 |
| 20260905015023 | 69 | 163 | 1.0 | 3.0 | 0.00 | 0.00 | 0.00 | 58 | 1013.2 |
| 20260905014029 | 69 | 160 | 2.0 | 6.0 | 0.00 | 0.00 | 0.00 | 57 | 1013.2 |
| 20260905013022 | 71 | 168 | 3.0 | 4.0 | 0.00 | 0.00 | 0.00 | 54 | 1013.1 |
| 20260905012015 | 70 | 136 | 1.0 | 3.0 | 0.00 | 0.00 | 0.00 | 54 | 1013.0 |
| 20260905011021 | 70 | 5 | 1.0 | 2.0 | 0.00 | 0.00 | 0.00 | 54 | 1013.0 |
| 20260905010030 | 70 | 189 | 2.0 | 5.0 | 0.00 | 0.00 | 0.00 | 55 | 1013.1 |
| 20260905005020 | 69 | 138 | 0.0 | 2.0 | 0.00 | 0.00 | 0.00 | 55 | 1013.0 |
| 20260905004029 | 68 | 180 | 1.0 | 3.0 | 0.00 | 0.00 | 0.00 | 58 | 1013.0 |
| 20260905003024 | 68 | 99 | 1.0 | 2.0 | 0.00 | 0.00 | 0.00 | 59 | 1013.0 |
| 20260905002015 | 68 | 159 | 0.0 | 2.0 | 0.00 | 0.00 | 0.00 | 59 | 1013.0 |
| 20260905001024 | 69 | 18 | 0.0 | 3.0 | 0.00 | 0.00 | 0.00 | 58 | 1012.9 |
| 20260905000031 | 68 | 168 | 1.0 | 3.0 | 0.00 | 0.00 | 0.00 | 59 | 1012.9 |
| 20260904235024 | 68 | 162 | 1.0 | 2.0 | 0.00 | 0.00 | 0.00 | 59 | 1013.0 |
| 20260904234031 | 69 | 101 | 0.0 | 1.0 | 0.00 | 0.00 | 0.00 | 58 | 1012.9 |
| 20260904233021 | 69 | 135 | 0.0 | 2.0 | 0.00 | 0.00 | 0.00 | 57 | 1012.9 |
| 20260904232029 | 69 | 204 | 1.0 | 3.0 | 0.00 | 0.00 | 0.00 | 58 | 1012.8 |
| 20260904231023 | 69 | 170 | 1.0 | 3.0 | 0.00 | 0.00 | 0.00 | 58 | 1012.6 |
| 20260904230031 | 69 | 133 | 1.0 | 2.0 | 0.00 | 0.00 | 0.00 | 58 | 1012.8 |
| 20260904225024 | 69 | 75 | 1.0 | 2.0 | 0.00 | 0.00 | 0.00 | 58 | 1012.7 |
| 20260904224032 | 69 | 226 | 0.0 | 2.0 | 0.00 | 0.00 | 0.00 | 58 | 1012.7 |
| 20260904223023 | 70 | 62 | 0.0 | 1.0 | 0.00 | 0.00 | 0.00 | 56 | 1012.7 |
| 20260904222031 | 71 | 40 | 0.0 | 2.0 | 0.00 | 0.00 | 0.00 | 55 | 1012.7 |
| 20260904221023 | 71 | 169 | 1.0 | 2.0 | 0.00 | 0.00 | 0.00 | 54 | 1012.8 |
| 20260904220032 | 71 | 199 | 0.0 | 3.0 | 0.00 | 0.00 | 0.00 | 53 | 1012.7 |